Location: Bu�n Treun
(12.1333°N, 108.3167°E)
Time: 00:20:23
(UTC+00:00)

CZ-3 R/B - Pass Details

Date: 13 July 2020
Orbit: 359 x 10252 km, 28.4° (Epoch: 03 August)

Event Time Altitude Azimuth Distance (km) Brightness Sun altitude
Rises 19:28:26 0° 294° (WNW) 15,292 7.4 -39.0°
Reaches altitude 10° 19:47:05 10° 296° (WNW) 13,464 7.1 -35.5°
Maximum altitude 20:40:13 90° 211° (SSW) 3,275 4.0 -24.8°
Drops below altitude 10° 20:51:02 10° 119° (ESE) 3,756 4.9 -22.5°
Sets 20:52:55 0° 119° (ESE) 4,288 5.3 -22.1°
